Volver al catálogo

STARLINK-5482

ActivoComunicacionesSSO
NORAD 56358·PAYLOAD·🇺🇸 United States

Lanzado Apr 27, 2023 desde Vandenberg Space Force Base

Loading…

Próximos Pases (próximas 24 horas)

TLE

ActualizadoSource: CelesTrak SupGP

Época: Sep 15, 2026, 02:44 UTC

1 56358C 23058AT  26258.11437500  .00593180  00000+0  35800-1 0  2589
2 56358  97.2853 252.2939 0001882  89.3058 230.5829 15.10514306    13

Sigue STARLINK-5482 en tiempo real con AllMySat

Download on the App Store